Vorticity
8 8 8 8 8 9 9 9 9 8 8 8 7 6 6 6 6 6 6 6 6 6 6 6 6 5 5 5 4 4 3 2 2 1 1 1 1 2 2 3 4 6 7 9 11 14 16 18 20 22 24 26 27 29 30 31 33 34 35 36 37 38 38 39 40 40 41 41 41 41 41 41 41 40 39 39 39 38 37 37 36 35 35 35 35 35
9 9 9 9 9 9 10 9 8 8 8 7 7 6 6 6 6 6 6 6 6 6 6 6 5 4 4 3 2 2 2 1 1 2 2 3 4 5 7 8 10 12 14 17 19 22 24 26 27 29 30 31 32 33 34 35 35 36 37 37 38 39 39 40 40 40 40 40 40 39 38 37 36 36 35 34 34 33 32 32 31 30 29 29 29 29
9 9 10 10 9 9 9 9 8 7 7 7 7 6 6 6 6 6 6 6 6 5 5 4 4 3 2 2 1 1 2 2 3 4 6 7 9 11 13 15 17 20 22 24 26 28 30 31 31 32 33 34 34 35 36 36 37 37 38 38 38 39 39 40 39 39 38 37 35 33 32 30 29 28 27 27 26 25 24 23 22 22 21 21 21 22
9 9 9 9 9 9 8 7 7 7 6 6 6 6 6 6 6 6 6 5 5 4 4 3 2 2 1 2 2 3 4 6 8 10 12 14 16 18 20 22 24 26 28 30 31 32 33 33 34 34 35 35 35 36 36 37 37 37 37 38 38 38 38 37 36 34 32 29 27 25 23 22 21 21 20 19 18 17 16 16 15 15 15 15 16 17
10 9 9 8 8 8 7 6 6 6 6 6 6 6 6 6 6 6 5 4 4 3 2 2 1 2 2 4 6 8 10 12 14 16 19 21 22 24 26 27 29 31 32 33 33 34 34 34 34 35 35 35 35 35 35 35 35 35 35 35 34 34 32 30 28 25 22 20 18 17 17 17 17 16 15 14 13 13 12 12 12 13 13 14 15 15
9 9 8 8 7 7 6 6 5 6 6 6 6 6 6 6 5 5 4 3 2 2 2 2 3 5 7 9 12 14 16 18 20 22 24 26 27 28 29 30 32 33 33 34 34 34 34 34 33 33 33 33 32 32 32 31 31 31 30 29 28 27 25 22 19 17 14 13 13 14 14 15 14 14 13 13 12 12 12 12 13 13 14 15 15 16
8 8 7 7 6 6 5 5 5 6 6 6 6 6 5 4 4 3 2 2 2 2 3 5 8 10 13 16 18 20 22 24 26 27 29 29 30 30 31 32 33 33 33 33 33 32 31 30 30 29 28 27 27 26 26 25 25 25 24 23 21 19 17 14 12 10 9 10 11 13 14 14 14 14 13 13 13 13 13 13 14 15 16 16 17 17
8 7 6 6 5 5 5 5 5 5 6 6 6 5 4 3 2 2 2 2 4 6 8 11 15 18 22 23 24 25 26 28 29 31 32 31 31 31 32 32 32 32 31 30 29 27 26 25 24 23 22 21 20 20 19 19 19 18 18 17 15 13 11 10 8 7 8 9 12 14 15 15 15 14 13 13 13 13 14 14 15 16 17 17 18 18
6 6 5 5 5 5 6 6 5 5 5 5 5 4 4 3 3 3 3 6 9 12 14 17 21 25 28 29 29 29 30 30 31 31 31 31 30 30 30 30 29 28 26 24 23 21 20 19 18 17 16 16 15 15 14 14 14 14 13 12 11 10 8 7 6 6 7 10 12 14 16 16 15 15 14 14 13 14 14 15 15 16 17 17 17 17
5 5 5 5 5 4 5 5 5 5 4 4 4 3 3 3 4 6 8 12 15 18 21 24 26 28 30 31 32 31 31 32 32 31 30 29 28 27 26 25 23 21 20 18 17 16 15 15 14 14 13 13 12 12 11 11 11 10 10 10 9 8 7 6 6 7 8 10 12 15 16 16 16 15 14 13 13 13 14 15 15 16 16 16 15 15
5 4 5 5 5 5 5 5 4 4 4 3 3 3 4 6 8 10 13 17 20 23 28 31 32 31 29 30 30 30 29 29 29 30 29 26 24 23 21 19 18 16 15 15 14 14 14 14 13 13 13 12 12 11 10 10 10 9 9 8 8 7 7 7 7 8 9 11 13 15 16 16 16 15 14 13 13 13 13 14 15 15 15 14 14 13
4 5 5 5 5 5 5 4 4 3 3 3 4 6 9 13 15 16 18 20 22 25 28 31 33 34 32 29 27 26 25 24 24 23 22 20 19 17 16 16 15 15 15 15 15 15 15 15 15 15 15 14 13 13 12 11 10 10 9 8 8 8 7 8 8 9 10 12 13 15 16 16 16 15 14 13 12 12 13 14 14 15 14 13 12 12
5 5 5 5 5 5 4 4 4 4 4 5 8 11 14 15 18 22 25 26 28 28 27 27 30 32 32 29 26 23 22 20 19 18 16 15 14 14 14 14 14 15 15 16 16 17 17 17 17 17 17 17 16 15 14 13 12 11 10 9 9 8 8 8 9 9 10 12 14 15 16 16 15 15 13 13 12 12 12 13 14 14 13 12 11 11
6 6 6 5 5 4 3 3 4 5 8 10 13 16 17 17 21 25 29 31 32 32 29 29 29 29 27 25 23 20 17 16 15 15 14 14 14 14 14 14 15 15 16 17 18 18 18 19 19 19 20 19 18 18 17 16 14 13 12 11 10 9 9 9 9 10 11 12 13 15 16 16 15 14 13 13 12 12 12 13 14 14 13 12 11 10
6 5 5 4 4 3 4 5 7 10 13 15 18 20 22 25 28 30 31 31 30 29 30 30 29 26 23 20 18 15 14 13 13 13 14 14 15 15 15 15 15 16 17 18 19 19 19 20 20 21 21 21 20 19 19 18 17 15 14 13 11 11 10 10 10 10 11 12 13 14 15 15 15 14 14 13 12 12 12 13 14 13 13 12 11 10
5 4 4 3 3 4 6 9 11 14 17 19 22 24 27 29 30 31 31 30 28 27 28 26 23 21 18 16 14 13 13 13 13 13 14 15 15 15 15 15 16 17 18 19 20 20 20 21 22 22 22 22 21 21 20 19 18 17 16 15 13 12 11 11 11 11 11 12 12 13 14 14 14 14 14 13 12 12 13 13 13 13 12 12 11 10
4 3 3 3 5 8 11 14 17 19 20 22 26 29 31 30 29 29 31 29 27 26 24 21 18 15 13 13 13 13 12 13 13 14 14 16 16 16 16 16 17 18 19 20 21 21 21 22 23 24 24 23 22 21 21 20 19 19 18 16 15 14 13 12 12 11 11 11 12 12 13 13 13 14 13 13 13 13 13 13 13 13 12 11 11 10
3 3 3 5 9 13 16 19 22 24 26 28 29 31 33 33 32 30 30 26 24 21 18 17 16 15 13 14 14 13 12 13 13 14 16 17 17 17 16 17 18 19 20 21 22 22 22 24 24 24 24 23 22 21 20 20 19 19 18 17 16 15 14 13 13 12 11 11 11 11 12 12 13 13 13 13 12 13 13 13 13 13 12 11 10 10
4 5 6 10 14 17 20 24 26 27 28 30 30 29 31 32 30 27 24 21 19 16 15 15 15 16 17 17 16 15 14 14 15 16 17 18 18 17 16 17 18 19 21 21 21 22 22 24 24 24 23 22 21 20 19 19 19 18 18 18 17 16 15 14 13 12 11 11 11 11 12 12 12 13 13 12 12 12 12 12 12 12 11 10 10 9
6 9 13 16 18 21 27 31 31 31 31 30 30 30 30 27 24 21 19 17 15 15 15 15 17 18 19 19 18 17 16 16 16 17 18 18 18 17 16 16 17 18 19 20 20 20 21 22 23 23 22 20 19 18 18 18 17 17 17 17 17 16 15 15 14 13 12 12 12 12 12 13 13 13 13 12 12 11 11 12 12 11 11 10 9 9
10 15 19 21 24 27 31 32 33 33 32 31 30 30 26 22 19 17 15 14 14 15 15 17 18 19 18 19 18 17 16 16 16 17 17 18 19 18 17 16 16 16 17 17 18 18 20 21 22 21 20 19 18 17 17 17 17 17 17 17 17 16 16 15 15 14 13 13 13 13 13 14 14 14 13 12 12 11 11 11 11 11 10 10 9 9
16 20 23 28 32 34 33 32 32 33 31 29 27 24 20 17 15 14 14 13 14 14 15 17 17 17 18 19 18 18 17 17 17 17 16 18 19 18 16 15 15 15 15 15 15 16 18 20 20 20 19 18 17 17 17 17 17 17 18 18 18 17 17 16 15 15 14 14 14 14 14 15 15 15 14 13 12 11 11 11 11 11 11 10 9 9
22 25 26 32 35 37 35 33 32 30 26 23 20 17 15 13 13 12 12 12 12 13 14 15 15 16 18 18 18 18 19 18 18 17 18 19 19 18 16 14 14 14 14 13 13 14 15 17 18 18 18 17 16 16 16 17 17 18 18 18 18 18 18 17 17 16 15 15 15 15 15 15 16 15 15 14 13 12 11 11 11 11 11 10 10 10
29 31 33 35 35 35 34 31 27 22 17 15 13 12 11 11 11 11 11 12 12 13 13 13 14 16 17 17 17 18 19 18 17 17 18 19 19 18 16 14 14 13 13 12 12 12 13 15 16 16 16 16 15 15 16 16 17 17 18 19 19 19 18 18 18 17 16 16 16 16 16 16 16 16 16 15 14 13 12 12 12 12 12 11 11 11
32 34 35 35 34 32 29 24 19 14 11 10 10 9 10 10 11 12 12 13 13 13 13 14 14 15 15 15 16 18 18 17 16 16 17 18 18 18 17 15 14 13 12 11 11 11 12 14 14 15 14 14 14 14 14 15 15 16 17 18 18 19 19 19 19 18 18 17 17 17 17 17 17 17 17 16 14 13 13 12 12 12 12 12 12 12
36 36 36 34 31 26 20 16 12 10 9 9 9 9 10 10 10 11 12 13 13 12 12 13 13 13 12 13 15 17 17 16 16 16 16 17 19 19 18 16 15 14 12 12 11 11 12 13 13 13 13 13 13 13 13 13 13 14 15 15 16 17 18 19 19 19 19 18 18 18 18 18 18 18 17 16 15 14 13 13 13 13 13 13 13 13
37 36 34 29 24 18 13 10 9 9 9 9 10 10 10 10 10 11 13 12 11 10 11 11 11 11 11 12 15 16 16 16 16 16 17 18 20 21 20 18 16 15 14 14 13 12 12 12 12 12 12 12 12 12 12 12 12 12 12 13 14 15 16 17 18 19 19 18 18 18 18 18 18 18 18 17 16 15 14 14 14 14 14 14 14 15
36 33 28 21 16 11 9 9 9 9 9 9 10 10 10 10 11 12 12 10 9 9 11 10 10 10 10 13 15 16 17 17 17 17 17 20 21 22 21 20 18 17 16 16 15 14 13 12 12 12 12 12 12 12 12 12 12 12 11 11 12 13 14 15 17 17 18 18 18 18 18 18 19 19 19 18 17 16 16 15 15 15 14 15 15 17
32 26 19 14 11 9 8 8 9 9 9 9 9 10 10 10 11 11 10 8 8 9 10 10 10 11 12 14 17 20 22 21 19 17 18 21 22 23 22 21 20 19 18 18 17 16 15 14 13 13 12 13 13 13 13 12 12 11 11 11 11 11 12 13 14 16 16 17 17 18 18 18 18 19 19 19 18 17 17 16 16 15 15 16 17 18
24 17 11 9 8 8 8 9 9 9 9 9 9 9 9 10 10 10 8 8 9 9 9 10 11 13 15 17 21 24 27 24 21 18 19 22 23 23 22 21 21 20 19 19 18 18 17 15 14 13 13 13 13 13 12 12 12 11 11 11 10 10 10 12 13 14 14 15 16 17 17 18 18 19 19 19 19 18 17 17 17 17 17 17 18 19
14 9 7 7 7 8 8 8 8 9 9 9 9 9 9 9 9 9 9 9 9 10 10 12 14 17 19 22 25 27 28 23 21 20 20 22 23 22 22 21 20 20 19 19 19 19 18 15 14 13 13 12 12 12 12 12 12 11 11 11 11 11 11 11 12 13 13 15 16 17 17 18 19 19 20 19 19 19 18 18 18 18 18 19 19 19
8 7 6 7 7 7 8 8 8 9 9 9 9 9 9 9 9 9 9 9 10 11 12 15 18 21 24 27 29 29 27 22 21 20 21 22 23 23 22 21 20 19 18 18 19 19 19 17 15 13 13 12 12 12 12 12 12 12 12 12 12 12 12 12 12 13 13 14 15 17 18 18 19 20 20 20 20 19 19 19 19 19 19 20 20 19
6 6 6 7 7 7 8 8 9 9 9 9 9 10 10 10 10 10 10 11 12 14 16 19 22 24 26 28 30 29 27 23 21 20 20 21 22 22 22 21 20 19 18 18 18 18 19 19 17 16 14 13 13 13 13 13 13 13 13 13 13 13 13 13 13 13 13 14 16 17 18 19 20 21 21 21 20 20 20 20 20 20 20 20 20 19
6 6 6 6 7 8 8 9 9 9 10 10 10 10 10 11 11 11 12 13 15 18 20 23 24 25 26 27 27 26 25 22 20 19 19 21 22 22 22 21 20 19 18 18 18 18 18 19 18 18 16 15 14 13 13 14 14 14 14 14 14 14 14 14 14 14 14 15 16 17 18 19 21 21 22 21 21 21 21 21 21 21 20 20 20 19
6 6 6 6 7 8 8 9 9 10 10 11 11 11 11 11 12 13 14 17 19 22 24 25 26 26 25 24 24 23 22 20 18 18 19 20 21 22 22 20 19 19 18 18 18 18 18 18 18 18 17 16 15 14 14 14 15 15 15 15 15 15 15 15 14 14 14 15 16 17 19 20 22 23 23 22 22 22 21 21 21 20 20 19 19 18
6 6 6 6 7 8 9 9 10 10 11 12 12 12 12 13 14 16 18 20 22 24 25 26 27 26 25 23 22 21 20 18 18 18 18 19 20 21 20 19 19 19 18 18 18 18 18 18 18 17 17 17 16 15 15 15 16 16 17 17 17 16 16 15 15 15 15 16 17 18 19 22 23 24 24 23 23 22 21 21 20 19 19 18 17 16
5 5 6 6 7 8 9 10 11 12 12 12 13 13 14 15 17 20 22 23 25 25 26 26 26 25 25 23 21 20 18 17 17 18 17 18 19 19 19 19 18 18 17 18 18 18 18 18 18 17 17 17 17 17 17 17 17 17 18 18 18 17 17 16 15 15 16 16 17 19 21 24 26 26 25 24 23 22 21 20 19 18 18 17 16 14
5 5 6 7 8 9 10 11 12 13 13 13 14 15 17 19 21 23 24 25 25 25 25 25 25 25 24 22 21 19 18 17 17 17 17 17 17 18 18 18 18 17 17 17 17 18 18 18 18 18 18 18 19 19 20 20 20 19 19 19 18 18 17 16 15 16 16 17 18 21 24 27 28 27 25 24 22 21 20 19 18 18 17 16 14 12
5 5 6 7 9 10 11 12 13 13 14 15 16 18 20 22 23 25 25 25 25 25 24 24 24 24 24 23 21 19 18 17 17 17 16 16 16 17 17 17 17 17 17 17 17 17 18 18 19 20 21 22 22 22 22 22 22 21 20 20 19 19 18 17 16 16 17 19 21 24 28 29 29 27 25 23 21 20 19 18 18 17 15 14 12 11
5 6 7 8 10 11 12 13 13 14 16 17 19 20 22 23 24 25 26 25 25 24 24 24 25 25 25 24 22 21 19 18 17 17 16 16 16 16 16 16 17 18 18 18 18 19 19 20 21 22 23 25 26 26 25 23 23 22 22 21 20 19 18 17 16 16 18 21 25 29 31 31 29 26 23 21 20 19 18 18 17 15 13 12 10 9
5 6 8 9 11 12 13 14 15 16 18 19 20 21 22 23 24 25 25 25 25 24 24 24 25 26 27 26 25 22 20 19 18 17 16 16 16 16 17 17 18 19 20 21 21 21 22 23 23 24 25 26 27 27 26 24 23 23 22 21 21 20 18 17 16 17 21 25 29 32 32 30 27 24 21 20 19 18 17 16 14 12 10 9 8 8
6 7 8 10 11 13 14 15 17 18 20 20 21 21 22 23 23 24 24 24 24 24 23 23 24 25 26 26 25 23 22 20 18 17 17 17 17 18 19 19 20 21 22 23 24 24 24 24 24 24 24 26 27 27 26 24 23 23 22 22 22 21 20 19 19 21 25 29 31 31 30 27 25 22 21 19 18 16 15 13 11 9 7 7 7 7
7 8 9 10 12 13 14 16 18 19 20 20 20 21 22 22 23 24 24 24 24 23 23 24 24 24 25 24 24 23 22 21 19 18 18 18 19 21 22 22 22 23 23 24 24 24 23 22 21 21 22 24 25 25 25 23 22 21 20 21 21 21 21 19 19 21 25 27 28 29 27 25 23 21 19 17 15 13 11 9 8 7 6 5 5 5
7 8 10 11 12 14 16 18 19 19 19 20 20 21 21 21 22 23 24 24 24 24 23 23 24 24 24 24 24 23 23 21 20 19 19 20 21 22 23 23 22 22 22 22 22 22 22 19 18 18 21 21 22 22 23 21 19 18 17 18 19 21 22 21 21 21 21 22 23 25 25 24 22 19 17 14 12 10 8 6 5 5 4 4 4 5
7 9 10 12 13 15 17 18 19 19 19 19 20 20 20 21 22 23 23 23 23 23 22 23 23 23 23 24 24 25 24 23 21 20 19 20 20 20 20 20 19 19 18 17 16 17 17 17 18 20 21 20 19 20 21 20 19 17 15 15 16 18 19 20 21 20 19 20 20 21 23 21 19 16 13 11 8 7 5 4 4 3 2 3 4 5
8 10 11 12 14 16 18 18 19 19 19 19 19 19 19 20 21 21 21 21 20 20 20 21 21 21 21 23 24 25 25 24 23 21 20 19 18 17 16 15 15 15 14 13 12 11 11 13 18 22 25 22 20 19 19 20 20 18 16 14 14 14 13 14 15 16 18 18 18 18 19 16 14 11 9 7 6 4 3 3 2 2 1 2 4 6
9 10 11 13 14 16 18 19 19 19 19 19 18 18 18 18 19 19 18 17 17 17 18 18 18 18 19 20 21 22 23 23 23 22 20 19 17 16 14 13 12 11 10 10 9 9 9 12 17 22 26 25 23 22 21 21 21 20 18 16 14 13 12 12 14 16 17 16 15 14 13 10 8 7 6 4 3 3 2 2 1 1 2 4 6 7
9 10 11 13 14 16 18 19 19 19 19 18 18 17 16 16 16 16 15 15 15 15 16 16 16 16 16 17 17 18 19 19 19 19 19 18 17 15 14 12 11 10 10 9 9 9 10 12 16 20 24 23 22 21 22 22 22 21 20 19 17 16 15 14 14 14 14 12 11 10 8 6 5 4 3 3 3 3 3 2 2 2 4 6 7 8
9 10 11 13 14 16 18 19 19 19 19 18 17 16 15 15 14 14 14 14 14 14 14 14 15 15 15 15 15 16 15 16 16 16 16 16 15 14 13 13 12 12 12 12 11 11 10 9 10 13 17 20 21 22 23 23 22 21 20 19 18 17 15 13 12 12 11 10 9 7 6 4 3 3 3 3 4 4 4 3 3 3 5 7 8 9
10 11 11 13 14 16 18 19 19 19 18 18 17 16 15 14 13 13 13 14 14 14 13 13 13 14 14 14 14 15 14 14 15 15 14 15 14 14 14 14 14 14 14 13 12 11 10 7 4 3 4 11 17 22 25 24 22 20 18 16 15 15 14 13 11 10 9 9 8 7 6 5 4 4 4 5 6 6 6 5 4 4 5 7 9 10
10 10 11 12 14 16 18 19 20 19 18 17 16 15 14 14 14 14 14 14 14 13 13 13 12 12 12 13 13 13 14 14 14 15 15 15 15 15 15 15 15 15 15 14 13 12 10 8 6 2 -2 2 9 16 23 24 24 21 18 15 13 13 13 12 12 11 10 9 8 8 7 7 7 6 7 8 9 9 9 7 6 5 6 8 10 11
Height
5609 5607 5605 5603 5601 5599 5596 5594 5591 5589 5586 5584 5582 5580 5577 5575 5573 5570 5568 5565 5562 5559 5556 5553 5551 5548 5545 5541 5538 5535 5532 5530 5527 5524 5522 5519 5516 5514 5511 5509 5506 5504 5501 5499 5496 5493 5491 5488 5485 5482 5480 5477 5475 5472 5470 5468 5466 5464 5462 5460 5458 5457 5455 5454 5452 5451 5450 5448 5447 5446 5445 5443 5442 5441 5441 5440 5439 5438 5438 5437 5436 5436 5435 5434 5434 5433
5604 5602 5600 5598 5596 5593 5590 5588 5585 5583 5580 5577 5576 5574 5571 5569 5566 5564 5561 5558 5555 5552 5549 5546 5543 5540 5536 5533 5530 5526 5524 5521 5518 5515 5512 5509 5506 5504 5501 5498 5496 5493 5490 5487 5485 5482 5479 5476 5474 5471 5469 5466 5464 5461 5460 5457 5456 5454 5452 5451 5449 5448 5446 5445 5444 5442 5441 5441 5439 5438 5437 5437 5436 5435 5434 5433 5433 5432 5431 5431 5430 5430 5429 5429 5428 5428
5600 5597 5595 5592 5590 5588 5585 5582 5579 5576 5574 5571 5569 5567 5565 5563 5560 5557 5555 5551 5548 5545 5541 5538 5535 5531 5528 5525 5521 5518 5515 5511 5509 5506 5502 5499 5496 5493 5490 5488 5485 5482 5479 5476 5474 5471 5468 5466 5463 5461 5458 5456 5454 5452 5450 5448 5446 5445 5443 5442 5441 5440 5438 5437 5436 5436 5435 5434 5433 5432 5431 5431 5430 5429 5428 5428 5427 5426 5426 5426 5425 5425 5425 5424 5424 5424
5595 5592 5589 5587 5585 5582 5579 5576 5573 5570 5568 5565 5563 5561 5558 5556 5553 5550 5547 5544 5541 5537 5534 5530 5527 5523 5520 5516 5512 5509 5506 5502 5499 5496 5492 5489 5486 5483 5480 5477 5474 5471 5469 5466 5463 5460 5458 5455 5453 5451 5449 5447 5445 5443 5441 5440 5438 5437 5436 5435 5433 5432 5431 5431 5430 5429 5429 5428 5428 5427 5426 5426 5425 5424 5423 5423 5422 5421 5421 5421 5421 5420 5420 5420 5420 5420
5589 5586 5584 5581 5579 5576 5573 5570 5567 5564 5561 5559 5557 5554 5551 5549 5546 5543 5540 5537 5533 5530 5526 5522 5519 5515 5511 5507 5503 5499 5496 5493 5489 5486 5482 5479 5476 5472 5469 5467 5464 5461 5459 5456 5453 5451 5448 5446 5444 5442 5440 5439 5437 5436 5434 5432 5431 5430 5429 5428 5427 5426 5426 5425 5425 5424 5424 5423 5423 5422 5421 5421 5420 5419 5419 5418 5417 5417 5417 5416 5416 5416 5416 5416 5416 5415
5584 5581 5578 5576 5573 5571 5567 5564 5561 5558 5555 5552 5550 5548 5545 5542 5539 5536 5533 5529 5526 5522 5518 5514 5510 5506 5501 5497 5493 5490 5486 5483 5480 5476 5472 5469 5466 5462 5460 5457 5455 5452 5449 5447 5444 5442 5440 5438 5436 5435 5433 5431 5430 5429 5427 5426 5425 5424 5423 5422 5422 5421 5421 5420 5420 5420 5419 5419 5418 5417 5416 5416 5415 5415 5414 5413 5413 5413 5412 5412 5412 5412 5411 5411 5411 5411
5578 5576 5573 5570 5566 5564 5561 5558 5554 5551 5548 5546 5544 5541 5539 5536 5532 5529 5525 5521 5517 5514 5510 5506 5501 5497 5492 5487 5483 5480 5476 5473 5470 5467 5463 5459 5456 5453 5451 5448 5446 5444 5441 5439 5436 5435 5433 5431 5429 5428 5426 5425 5424 5423 5422 5421 5420 5419 5418 5417 5417 5416 5416 5416 5415 5415 5415 5414 5413 5413 5412 5411 5411 5410 5409 5409 5409 5408 5408 5408 5407 5407 5407 5407 5406 5406
5572 5570 5567 5564 5561 5558 5554 5551 5548 5545 5541 5539 5537 5535 5532 5529 5526 5522 5518 5514 5509 5505 5501 5497 5492 5487 5483 5478 5474 5470 5467 5464 5461 5458 5455 5451 5447 5445 5443 5441 5438 5436 5434 5432 5430 5428 5426 5425 5423 5422 5421 5420 5418 5417 5416 5416 5415 5414 5413 5413 5412 5412 5411 5411 5411 5411 5410 5410 5409 5408 5408 5407 5406 5406 5405 5405 5404 5404 5404 5403 5403 5403 5402 5402 5402 5402
5566 5564 5561 5558 5556 5552 5549 5545 5541 5538 5536 5532 5529 5527 5525 5522 5518 5515 5511 5506 5501 5496 5492 5488 5484 5479 5474 5469 5465 5461 5459 5456 5453 5450 5447 5444 5440 5437 5436 5434 5432 5430 5427 5425 5423 5421 5420 5419 5417 5416 5415 5414 5413 5412 5411 5411 5410 5409 5408 5408 5407 5407 5406 5406 5406 5406 5405 5405 5404 5404 5403 5402 5402 5401 5401 5400 5400 5400 5399 5399 5399 5398 5398 5398 5398 5398
5561 5558 5555 5551 5549 5546 5543 5539 5535 5532 5529 5526 5522 5519 5517 5514 5511 5507 5503 5499 5494 5488 5484 5480 5476 5472 5466 5461 5456 5453 5451 5449 5446 5443 5440 5437 5434 5431 5429 5428 5426 5424 5422 5420 5417 5416 5414 5413 5412 5411 5410 5408 5407 5406 5406 5405 5405 5404 5403 5403 5402 5402 5402 5401 5401 5401 5401 5400 5400 5399 5399 5398 5398 5397 5397 5396 5396 5395 5395 5395 5395 5394 5394 5395 5395 5395
5555 5552 5549 5546 5542 5539 5536 5533 5529 5526 5522 5519 5515 5511 5508 5505 5502 5499 5495 5490 5486 5481 5476 5471 5467 5464 5460 5455 5450 5446 5444 5442 5441 5437 5434 5431 5428 5426 5424 5422 5420 5418 5416 5414 5412 5410 5408 5407 5406 5405 5404 5403 5402 5401 5400 5400 5399 5398 5398 5397 5397 5397 5396 5396 5396 5396 5396 5396 5395 5395 5394 5394 5393 5393 5392 5392 5391 5391 5391 5391 5391 5391 5391 5391 5391 5391
5549 5546 5543 5540 5536 5533 5529 5526 5522 5519 5516 5512 5508 5504 5500 5496 5492 5489 5486 5482 5478 5474 5470 5466 5461 5456 5452 5449 5445 5441 5438 5437 5435 5433 5430 5426 5423 5420 5418 5416 5415 5413 5411 5409 5406 5404 5402 5401 5401 5399 5398 5397 5396 5395 5394 5394 5393 5393 5392 5392 5392 5391 5391 5391 5391 5391 5391 5391 5391 5390 5390 5390 5389 5389 5388 5388 5387 5387 5387 5387 5387 5387 5387 5387 5387 5387
5543 5540 5536 5533 5530 5526 5522 5519 5516 5512 5508 5504 5501 5496 5492 5488 5484 5480 5477 5474 5470 5466 5464 5460 5456 5450 5445 5441 5438 5436 5433 5432 5431 5429 5426 5423 5418 5415 5413 5412 5410 5407 5406 5403 5401 5398 5396 5396 5395 5393 5391 5391 5390 5389 5388 5388 5387 5387 5387 5386 5386 5386 5386 5386 5386 5386 5386 5386 5386 5386 5386 5385 5385 5385 5384 5384 5383 5383 5383 5383 5383 5383 5384 5384 5384 5384
5537 5533 5530 5526 5523 5519 5516 5512 5508 5504 5500 5496 5493 5489 5485 5480 5476 5472 5469 5466 5462 5459 5456 5454 5451 5446 5441 5436 5432 5429 5428 5427 5426 5425 5422 5419 5414 5410 5409 5407 5405 5403 5401 5399 5396 5392 5391 5390 5389 5387 5386 5385 5383 5382 5382 5382 5381 5381 5381 5381 5381 5381 5380 5380 5381 5381 5381 5381 5381 5381 5381 5381 5381 5380 5380 5380 5380 5379 5379 5380 5380 5380 5380 5380 5380 5380
5530 5527 5523 5519 5516 5512 5508 5504 5500 5496 5492 5488 5485 5481 5477 5472 5468 5465 5462 5459 5456 5452 5450 5447 5445 5441 5436 5431 5426 5424 5422 5421 5421 5420 5419 5415 5410 5405 5403 5403 5401 5398 5396 5394 5391 5388 5386 5385 5384 5382 5380 5379 5377 5376 5376 5376 5376 5375 5375 5375 5375 5375 5375 5375 5375 5375 5376 5376 5376 5376 5376 5376 5376 5376 5376 5376 5376 5376 5376 5376 5376 5376 5376 5377 5377 5377
5524 5520 5516 5513 5509 5505 5501 5497 5493 5489 5485 5481 5477 5473 5470 5466 5462 5458 5455 5452 5449 5446 5444 5442 5440 5436 5432 5426 5421 5418 5417 5416 5415 5414 5414 5412 5406 5401 5398 5398 5396 5394 5391 5390 5387 5384 5381 5380 5378 5377 5375 5373 5372 5371 5370 5370 5370 5369 5369 5369 5369 5369 5369 5369 5370 5370 5370 5371 5371 5371 5371 5371 5371 5371 5371 5371 5371 5371 5371 5372 5372 5372 5373 5373 5373 5373
5518 5514 5510 5506 5502 5498 5494 5489 5485 5481 5477 5474 5470 5466 5462 5459 5456 5452 5449 5446 5443 5440 5438 5436 5434 5432 5429 5423 5416 5411 5410 5411 5410 5409 5409 5407 5402 5396 5393 5393 5391 5390 5387 5385 5382 5379 5377 5376 5374 5372 5370 5368 5367 5366 5365 5364 5364 5364 5364 5364 5363 5363 5364 5364 5364 5364 5365 5365 5366 5366 5366 5366 5366 5367 5367 5367 5367 5367 5367 5368 5368 5369 5369 5369 5370 5370
5511 5507 5503 5499 5495 5491 5487 5482 5478 5473 5470 5467 5464 5460 5456 5453 5449 5446 5443 5440 5437 5435 5432 5430 5427 5425 5423 5420 5413 5407 5405 5405 5405 5404 5403 5402 5398 5393 5389 5388 5386 5385 5383 5381 5378 5375 5373 5371 5369 5367 5366 5364 5362 5361 5360 5359 5359 5358 5358 5358 5358 5358 5358 5358 5359 5359 5360 5360 5361 5361 5361 5361 5362 5362 5362 5362 5362 5363 5363 5364 5364 5365 5365 5366 5366 5366
5504 5500 5496 5492 5488 5484 5479 5475 5471 5467 5464 5460 5457 5455 5451 5448 5444 5441 5438 5435 5432 5430 5427 5425 5422 5419 5416 5414 5409 5403 5400 5400 5399 5398 5398 5397 5394 5390 5386 5384 5382 5381 5379 5376 5373 5371 5369 5367 5365 5363 5361 5359 5358 5356 5355 5354 5354 5353 5353 5353 5353 5353 5353 5353 5354 5354 5355 5355 5356 5356 5356 5356 5357 5357 5357 5357 5358 5358 5359 5359 5360 5361 5361 5361 5362 5362
5497 5492 5488 5485 5481 5477 5472 5468 5464 5461 5458 5454 5451 5449 5446 5443 5440 5437 5433 5430 5427 5425 5422 5420 5417 5414 5411 5408 5404 5399 5395 5394 5393 5393 5393 5392 5390 5386 5382 5380 5379 5377 5375 5372 5370 5367 5366 5364 5361 5359 5357 5355 5353 5352 5351 5350 5349 5349 5349 5348 5348 5348 5348 5348 5348 5349 5350 5350 5351 5351 5351 5352 5352 5352 5353 5353 5353 5354 5354 5355 5356 5356 5357 5357 5358 5358
5491 5486 5481 5477 5474 5471 5466 5462 5458 5454 5451 5449 5446 5443 5441 5438 5435 5432 5429 5426 5423 5421 5418 5416 5412 5409 5406 5403 5399 5395 5391 5389 5388 5387 5387 5387 5386 5382 5379 5376 5375 5373 5371 5369 5366 5364 5362 5360 5358 5356 5354 5351 5349 5348 5346 5346 5345 5345 5344 5344 5344 5343 5343 5343 5344 5344 5345 5345 5346 5346 5347 5347 5348 5348 5348 5348 5348 5349 5350 5350 5351 5351 5352 5353 5354 5354
5484 5479 5474 5470 5467 5464 5461 5457 5453 5449 5446 5443 5441 5439 5436 5433 5431 5427 5424 5421 5419 5416 5414 5411 5408 5405 5402 5398 5394 5390 5386 5383 5382 5381 5381 5381 5381 5378 5375 5373 5371 5370 5368 5366 5363 5361 5359 5357 5355 5352 5350 5348 5346 5344 5343 5342 5341 5340 5340 5339 5339 5339 5339 5339 5339 5339 5340 5341 5341 5342 5342 5343 5343 5344 5344 5344 5344 5344 5345 5346 5346 5347 5348 5348 5349 5350
5477 5473 5468 5464 5461 5457 5455 5451 5448 5444 5441 5439 5437 5434 5431 5429 5426 5423 5420 5417 5415 5412 5410 5407 5404 5401 5397 5394 5390 5385 5381 5378 5376 5375 5375 5376 5375 5374 5371 5369 5367 5366 5364 5362 5360 5357 5356 5354 5352 5349 5346 5344 5342 5340 5339 5338 5337 5336 5336 5335 5335 5334 5334 5334 5334 5335 5335 5336 5336 5337 5338 5338 5339 5339 5339 5339 5339 5340 5340 5341 5342 5343 5343 5344 5345 5346
5470 5466 5462 5459 5456 5452 5449 5446 5443 5440 5437 5435 5432 5430 5427 5425 5422 5420 5416 5413 5410 5407 5405 5402 5399 5396 5393 5389 5386 5381 5376 5373 5370 5369 5369 5369 5369 5369 5367 5364 5362 5361 5360 5358 5356 5354 5353 5351 5349 5346 5344 5341 5339 5337 5336 5334 5333 5332 5332 5331 5330 5330 5329 5329 5329 5330 5331 5331 5332 5333 5333 5334 5335 5335 5335 5335 5335 5335 5336 5336 5337 5338 5339 5340 5341 5341
5465 5461 5458 5454 5451 5448 5445 5442 5440 5437 5434 5431 5429 5427 5424 5421 5417 5414 5410 5407 5404 5402 5399 5397 5395 5392 5388 5386 5382 5377 5372 5368 5365 5364 5363 5364 5364 5364 5362 5360 5358 5356 5355 5354 5353 5351 5349 5348 5346 5343 5341 5338 5336 5334 5332 5331 5330 5329 5328 5327 5326 5325 5325 5325 5325 5325 5326 5327 5328 5329 5329 5330 5330 5331 5331 5331 5331 5331 5331 5332 5333 5334 5335 5336 5336 5337
5459 5456 5453 5450 5447 5444 5441 5439 5436 5433 5430 5427 5425 5422 5419 5416 5412 5409 5406 5402 5400 5397 5394 5391 5389 5387 5384 5381 5378 5374 5369 5364 5361 5359 5359 5359 5359 5358 5357 5355 5353 5352 5351 5350 5349 5347 5346 5344 5342 5340 5338 5335 5333 5331 5329 5328 5326 5325 5324 5323 5322 5321 5321 5320 5321 5321 5322 5323 5324 5324 5325 5326 5326 5326 5326 5326 5326 5326 5327 5327 5328 5329 5330 5331 5332 5333
5455 5452 5449 5446 5444 5441 5438 5435 5432 5429 5426 5422 5419 5416 5414 5411 5408 5405 5401 5398 5395 5392 5390 5387 5385 5382 5380 5377 5374 5370 5365 5360 5356 5354 5354 5354 5354 5353 5352 5350 5349 5347 5346 5346 5345 5344 5342 5341 5339 5337 5335 5332 5330 5328 5326 5325 5323 5322 5321 5320 5318 5317 5316 5316 5316 5317 5317 5318 5319 5320 5321 5321 5322 5322 5322 5322 5322 5322 5322 5323 5324 5325 5326 5327 5328 5329
5451 5448 5445 5442 5440 5437 5434 5431 5428 5425 5421 5418 5415 5412 5409 5406 5404 5400 5397 5394 5391 5388 5385 5382 5380 5377 5375 5373 5370 5366 5362 5356 5351 5349 5349 5350 5349 5348 5347 5346 5344 5342 5341 5341 5341 5340 5339 5337 5335 5333 5331 5329 5327 5326 5323 5321 5320 5319 5317 5316 5315 5314 5313 5312 5312 5312 5313 5314 5316 5316 5317 5317 5317 5318 5318 5318 5318 5318 5318 5319 5320 5321 5322 5323 5324 5325
5446 5444 5441 5439 5436 5433 5431 5427 5424 5421 5417 5414 5411 5407 5404 5401 5399 5396 5392 5390 5387 5384 5380 5377 5375 5372 5370 5368 5366 5362 5358 5352 5347 5345 5345 5345 5344 5343 5342 5341 5339 5338 5337 5336 5336 5336 5336 5334 5331 5330 5328 5326 5325 5322 5320 5318 5317 5315 5314 5313 5312 5310 5309 5308 5308 5309 5310 5311 5311 5312 5313 5313 5313 5313 5313 5314 5314 5314 5315 5315 5316 5317 5318 5319 5320 5322
5442 5440 5437 5435 5432 5430 5427 5423 5420 5417 5413 5410 5406 5403 5400 5396 5394 5391 5388 5385 5382 5379 5376 5372 5370 5367 5364 5362 5360 5357 5353 5348 5343 5340 5340 5339 5339 5338 5338 5336 5335 5333 5332 5331 5331 5331 5332 5331 5329 5326 5324 5323 5322 5320 5317 5315 5314 5312 5311 5310 5309 5307 5306 5305 5305 5305 5306 5307 5308 5308 5309 5309 5309 5309 5310 5310 5310 5310 5311 5311 5312 5313 5314 5315 5317 5318
5440 5437 5435 5432 5429 5426 5423 5420 5417 5413 5410 5406 5403 5399 5396 5392 5389 5386 5383 5380 5377 5374 5371 5368 5365 5362 5359 5356 5354 5351 5348 5344 5339 5336 5335 5335 5334 5334 5333 5331 5330 5329 5328 5327 5326 5326 5327 5327 5326 5324 5321 5320 5318 5317 5315 5312 5311 5309 5308 5307 5306 5304 5303 5302 5301 5301 5302 5303 5304 5305 5305 5305 5306 5306 5306 5306 5306 5306 5307 5308 5308 5309 5311 5312 5313 5315
5437 5435 5432 5430 5426 5423 5420 5417 5414 5410 5407 5403 5400 5396 5392 5389 5386 5382 5379 5375 5372 5369 5366 5362 5359 5356 5353 5351 5348 5346 5342 5339 5335 5332 5331 5330 5330 5329 5329 5327 5326 5325 5324 5323 5322 5321 5321 5322 5322 5321 5319 5317 5316 5314 5312 5310 5308 5306 5305 5304 5303 5301 5300 5299 5298 5298 5299 5299 5300 5301 5301 5301 5302 5302 5302 5302 5302 5303 5303 5304 5305 5306 5307 5308 5310 5311
5436 5433 5430 5427 5424 5421 5417 5414 5411 5407 5404 5400 5396 5393 5389 5385 5381 5378 5374 5371 5367 5364 5361 5357 5354 5351 5348 5346 5343 5341 5338 5334 5331 5328 5327 5326 5325 5325 5325 5324 5322 5321 5321 5320 5319 5318 5317 5317 5317 5317 5316 5315 5313 5311 5309 5307 5305 5303 5302 5301 5300 5299 5297 5296 5295 5295 5295 5296 5296 5297 5297 5298 5298 5298 5298 5299 5299 5299 5300 5301 5301 5303 5304 5305 5307 5308
5434 5431 5428 5425 5422 5418 5415 5411 5408 5404 5401 5397 5393 5389 5386 5382 5378 5374 5370 5366 5362 5359 5356 5352 5349 5346 5343 5341 5338 5336 5334 5331 5327 5325 5323 5322 5321 5321 5321 5320 5319 5317 5316 5316 5315 5314 5314 5313 5313 5312 5312 5311 5310 5308 5306 5304 5302 5300 5299 5297 5296 5296 5295 5293 5292 5292 5292 5292 5293 5294 5294 5294 5295 5295 5295 5295 5296 5296 5297 5298 5299 5300 5301 5302 5304 5305
5432 5429 5426 5423 5419 5416 5412 5409 5405 5401 5397 5394 5390 5386 5382 5378 5374 5370 5366 5362 5358 5354 5351 5348 5345 5342 5339 5336 5334 5332 5330 5327 5324 5322 5320 5319 5318 5317 5317 5316 5316 5314 5313 5312 5312 5311 5310 5310 5309 5308 5307 5307 5306 5305 5303 5301 5299 5297 5296 5294 5293 5292 5291 5291 5290 5289 5289 5290 5290 5290 5291 5291 5291 5291 5292 5292 5292 5293 5294 5295 5296 5297 5298 5300 5301 5303
5429 5426 5423 5420 5417 5414 5410 5406 5402 5398 5394 5390 5386 5382 5378 5374 5370 5366 5362 5358 5354 5351 5347 5344 5341 5338 5335 5332 5330 5328 5326 5324 5321 5319 5317 5316 5315 5314 5313 5313 5312 5311 5310 5309 5308 5308 5307 5306 5306 5305 5304 5303 5302 5301 5300 5298 5296 5294 5293 5291 5291 5289 5288 5287 5287 5286 5286 5287 5287 5287 5287 5288 5288 5288 5289 5289 5290 5290 5291 5292 5293 5294 5296 5297 5299 5300
5427 5424 5421 5418 5415 5411 5407 5403 5399 5396 5391 5387 5383 5379 5375 5371 5367 5363 5359 5355 5351 5347 5344 5340 5337 5334 5331 5328 5326 5324 5322 5320 5318 5316 5315 5313 5312 5311 5311 5310 5309 5308 5307 5306 5305 5304 5304 5303 5302 5301 5301 5299 5298 5297 5296 5295 5294 5292 5290 5289 5287 5286 5285 5284 5284 5283 5284 5284 5284 5285 5285 5285 5285 5286 5286 5286 5287 5288 5289 5290 5291 5292 5293 5295 5296 5298
5424 5421 5418 5415 5412 5408 5405 5401 5396 5392 5388 5384 5380 5376 5372 5368 5364 5360 5356 5351 5348 5344 5341 5338 5335 5331 5329 5326 5323 5321 5319 5317 5316 5314 5312 5311 5310 5309 5308 5307 5306 5306 5305 5303 5302 5301 5301 5299 5299 5298 5297 5296 5295 5294 5293 5292 5291 5289 5288 5286 5285 5284 5282 5281 5281 5281 5281 5281 5282 5282 5282 5282 5282 5283 5283 5284 5285 5286 5287 5288 5289 5290 5291 5293 5294 5296
5422 5419 5416 5412 5409 5405 5401 5397 5393 5389 5385 5381 5377 5373 5369 5365 5361 5357 5353 5349 5345 5341 5338 5336 5332 5330 5327 5324 5321 5318 5316 5314 5313 5311 5310 5308 5307 5306 5306 5305 5304 5303 5302 5301 5300 5299 5297 5296 5295 5294 5293 5293 5292 5291 5290 5289 5287 5286 5285 5284 5283 5281 5280 5279 5278 5278 5278 5279 5279 5280 5280 5280 5280 5281 5281 5282 5283 5284 5285 5286 5287 5288 5290 5291 5292 5294
5419 5416 5413 5409 5406 5402 5398 5394 5391 5386 5382 5378 5374 5370 5366 5362 5358 5354 5350 5346 5343 5340 5336 5334 5331 5328 5325 5322 5319 5316 5314 5312 5311 5309 5308 5306 5305 5304 5303 5302 5302 5301 5300 5299 5298 5296 5295 5293 5292 5291 5291 5289 5289 5288 5287 5286 5284 5283 5282 5281 5281 5280 5278 5277 5276 5276 5276 5276 5277 5277 5277 5278 5278 5279 5280 5281 5281 5282 5283 5285 5286 5287 5288 5289 5291 5292
5417 5413 5410 5406 5403 5399 5395 5391 5387 5383 5379 5375 5371 5367 5363 5360 5356 5352 5349 5345 5342 5338 5335 5332 5330 5327 5324 5321 5318 5315 5313 5311 5309 5307 5306 5305 5303 5302 5301 5301 5300 5298 5298 5297 5296 5294 5293 5291 5290 5289 5288 5287 5286 5285 5284 5283 5281 5280 5279 5279 5278 5278 5277 5275 5274 5274 5274 5274 5275 5275 5276 5276 5276 5277 5278 5279 5280 5281 5282 5283 5284 5286 5286 5288 5289 5290
5414 5411 5408 5404 5400 5396 5392 5388 5385 5381 5376 5372 5369 5365 5361 5358 5355 5351 5348 5345 5341 5338 5335 5332 5329 5326 5324 5321 5318 5315 5312 5309 5307 5306 5304 5303 5302 5301 5300 5298 5297 5296 5296 5295 5293 5292 5291 5289 5288 5286 5285 5284 5284 5283 5282 5281 5280 5278 5277 5276 5276 5276 5276 5274 5273 5272 5272 5273 5273 5273 5274 5275 5276 5276 5277 5278 5279 5280 5281 5282 5283 5284 5285 5286 5286 5287
5412 5409 5405 5401 5398 5394 5390 5386 5382 5378 5374 5370 5366 5363 5360 5356 5353 5350 5347 5344 5341 5337 5334 5331 5329 5326 5323 5321 5318 5315 5312 5309 5306 5305 5303 5301 5300 5299 5298 5297 5296 5295 5293 5292 5291 5290 5289 5288 5286 5285 5284 5283 5282 5281 5280 5279 5278 5277 5276 5275 5274 5274 5274 5273 5272 5271 5271 5271 5272 5272 5273 5274 5274 5275 5276 5277 5278 5279 5280 5281 5281 5282 5283 5284 5284 5285
5410 5406 5403 5399 5395 5391 5388 5384 5380 5376 5372 5369 5365 5362 5358 5355 5352 5349 5346 5343 5340 5337 5333 5331 5328 5326 5323 5320 5318 5315 5313 5310 5307 5304 5302 5301 5299 5298 5297 5296 5294 5293 5292 5291 5290 5288 5287 5286 5285 5284 5282 5281 5281 5279 5278 5277 5277 5276 5275 5274 5273 5273 5272 5272 5271 5271 5271 5271 5271 5271 5272 5273 5274 5275 5276 5276 5277 5278 5279 5279 5280 5281 5281 5281 5282 5283
5407 5404 5400 5397 5393 5389 5386 5382 5378 5375 5371 5368 5364 5361 5357 5354 5351 5348 5345 5342 5339 5336 5333 5330 5327 5325 5322 5320 5317 5315 5313 5311 5308 5305 5302 5301 5299 5297 5296 5295 5293 5292 5291 5290 5289 5287 5286 5285 5284 5283 5282 5281 5280 5278 5277 5276 5276 5275 5274 5273 5272 5272 5271 5271 5271 5271 5270 5271 5271 5271 5271 5272 5273 5274 5275 5276 5276 5277 5277 5278 5278 5279 5279 5280 5280 5280
5405 5402 5398 5395 5391 5388 5384 5381 5377 5373 5370 5367 5363 5360 5357 5354 5351 5347 5344 5341 5338 5335 5332 5329 5326 5324 5321 5319 5317 5315 5313 5311 5309 5306 5304 5301 5299 5297 5296 5294 5293 5291 5290 5289 5288 5286 5285 5284 5283 5282 5281 5280 5279 5278 5276 5275 5275 5274 5273 5272 5272 5271 5271 5270 5270 5270 5270 5270 5270 5271 5271 5272 5273 5273 5274 5275 5275 5276 5276 5276 5276 5277 5277 5277 5277 5277
5403 5400 5396 5393 5390 5386 5383 5379 5376 5372 5369 5366 5363 5359 5356 5353 5350 5347 5344 5341 5337 5335 5332 5329 5326 5324 5321 5319 5316 5315 5313 5311 5309 5307 5305 5302 5300 5298 5296 5294 5293 5291 5290 5288 5287 5286 5284 5283 5282 5281 5280 5279 5278 5277 5276 5275 5274 5273 5272 5272 5271 5271 5270 5270 5269 5269 5270 5270 5270 5270 5271 5271 5272 5272 5273 5273 5274 5274 5274 5274 5274 5274 5274 5274 5274 5274
5401 5398 5395 5391 5388 5385 5381 5378 5375 5372 5369 5366 5362 5359 5356 5352 5349 5346 5343 5340 5337 5335 5332 5329 5326 5324 5321 5319 5316 5314 5312 5311 5309 5307 5305 5303 5301 5299 5297 5295 5293 5291 5290 5288 5287 5285 5284 5282 5281 5280 5280 5279 5277 5276 5275 5274 5273 5272 5272 5271 5271 5270 5270 5269 5269 5269 5269 5269 5270 5270 5270 5271 5271 5271 5271 5272 5272 5272 5272 5272 5272 5271 5271 5271 5271 5271
5400 5396 5393 5390 5387 5383 5380 5377 5374 5371 5368 5365 5362 5358 5355 5352 5349 5346 5343 5340 5337 5334 5331 5329 5326 5324 5321 5319 5317 5315 5313 5311 5309 5307 5305 5304 5302 5300 5298 5296 5294 5293 5291 5289 5287 5286 5284 5282 5281 5280 5278 5278 5277 5276 5275 5274 5273 5272 5271 5271 5271 5270 5269 5269 5269 5269 5269 5269 5269 5269 5269 5269 5270 5270 5270 5270 5270 5270 5270 5270 5269 5269 5268 5268 5268 5267
5398 5395 5392 5389 5385 5382 5379 5376 5373 5370 5367 5364 5361 5358 5355 5351 5348 5345 5342 5340 5337 5334 5331 5329 5326 5324 5321 5319 5317 5315 5313 5311 5309 5307 5305 5304 5302 5300 5299 5297 5296 5294 5292 5291 5289 5287 5285 5284 5282 5280 5278 5277 5276 5276 5275 5274 5273 5272 5271 5271 5270 5270 5269 5269 5269 5268 5268 5268 5268 5268 5268 5268 5268 5268 5268 5268 5268 5268 5268 5267 5267 5266 5266 5265 5264 5264
5396 5393 5390 5387 5384 5381 5378 5375 5371 5369 5366 5363 5360 5357 5354 5351 5348 5346 5343 5340 5337 5334 5331 5329 5326 5324 5321 5319 5317 5315 5313 5311 5309 5307 5306 5304 5302 5300 5299 5297 5296 5294 5293 5291 5290 5288 5286 5285 5283 5281 5279 5278 5276 5276 5275 5274 5273 5272 5271 5271 5270 5270 5269 5269 5268 5268 5268 5267 5267 5267 5266 5266 5266 5266 5266 5266 5266 5266 5266 5265 5264 5264 5263 5262 5261 5261